Ames, IA

5:57 PM CST on February 13, 2016 (GMT -0600)
Ames Municipal

Weather History for KAMW - January, 2012

Change the Weather History Date:

Saturday, January 21, 2012

  Actual Average Record
Temperature  
Mean Temperature 10 °F 20 °F  
Max Temperature 24 °F 29 °F 48 °F (2002)
Min Temperature -4 °F 11 °F -9 °F (2011)
Degree Days  
Heating Degree Days 55 45  
Month to date heating degree days 798 954  
Since 1 July heating degree days 3188 3708  
Cooling Degree Days 0 0  
Month to date cooling degree days 0 0  
Year to date cooling degree days 0 0  
Moisture  
Dew Point 7 °F    
Average Humidity 84    
Maximum Humidity 92    
Minimum Humidity 76    
Precipitation  
Precipitation T in 0.03 in 0.29 in (1993)
Month to date precipitation T 0.36  
Year to date precipitation T  
Sea Level Pressure  
Sea Level Pressure 30.12 in    
Wind  
Wind Speed 9 mph (SE)    
Max Wind Speed 24 mph    
Max Gust Speed 30 mph    
Visibility 7 miles    
Events Snow    
T = Trace of Precipitation, MM = Missing Value Source: NWS Daily Summary

Daily Weather History Graph

Daily Weather History Graph

Search for Another Location

Airport or City:

Trip Planner

Search our weather history database for the weather conditions in past years. The results will help you decide how hot, cold, wet, or windy it might be!

Date:

Astronomy

Jan. 21, 2012 Rise Set
Actual Time 7:36 AM CST 5:14 PM CST
Civil Twilight 7:06 AM CST 5:45 PM CST
Nautical Twilight 6:32 AM CST 6:19 PM CST
Astronomical Twilight 5:59 AM CST 6:52 PM CST
Moon 6:09 AM CST (1/21) 3:51 PM CST (1/21)
Length of Visible Light 10h 38m
Length of Day
9h 37m
Waning Crescent, 3% of the Moon is Illuminated
Jan 21
Waning Crescent
Jan 23
New
Jan 30
First Quarter
Feb 7
Full
Feb 14
Last Quarter

Hourly Weather History & Observations

Time (CST) Temp. Windchill Dew Point Humidity Pressure Visibility Wind Dir Wind Speed Gust Speed Precip Events Conditions
12:53 AM 5.0 °F -9.1 °F -0.0 °F 80% 30.27 in 10.0 mi North 9.2 mph - N/A   Overcast
2:53 AM 1.0 °F -10.3 °F -4.0 °F 79% 30.27 in 10.0 mi North 5.8 mph - N/A   Mostly Cloudy
3:01 AM -0.4 °F -12.0 °F -4.0 °F 85% 30.21 in 10.0 mi NNW 5.8 mph - N/A   Scattered Clouds
3:53 AM -2.0 °F -13.9 °F -6.0 °F 83% 30.26 in 7.0 mi North 5.8 mph - N/A   Clear
4:53 AM -2.9 °F -15.0 °F -7.1 °F 82% 30.27 in 5.0 mi NNW 5.8 mph - N/A   Clear
5:39 AM -2.2 °F -10.4 °F -7.6 °F 78% 30.20 in 10.0 mi NNW 3.5 mph - N/A   Mostly Cloudy
5:53 AM -2.0 °F - -6.0 °F 83% 30.27 in 10.0 mi Calm Calm - N/A   Overcast
6:53 AM -2.0 °F - -6.0 °F 83% 30.27 in 10.0 mi Calm Calm - N/A   Overcast
7:53 AM -0.9 °F - -5.1 °F 83% 30.26 in 7.0 mi Calm Calm - N/A   Overcast
8:46 AM -0.4 °F - -4.0 °F 85% 30.20 in 1.8 mi Calm Calm - 0.00 in Snow Light Snow
8:53 AM -0.0 °F - -4.0 °F 83% 30.26 in 1.0 mi Calm Calm - 0.00 in Snow Light Snow
9:38 AM 3.2 °F - -0.4 °F 85% 30.20 in 2.5 mi Calm Calm - 0.00 in Snow Light Snow
9:47 AM 3.2 °F - -0.4 °F 85% 30.20 in 3.0 mi Calm Calm - 0.00 in   Overcast
9:53 AM 3.9 °F - -0.9 °F 80% 30.26 in 3.0 mi Calm Calm - 0.00 in   Haze
10:53 AM 7.0 °F - 3.0 °F 84% 30.25 in 9.0 mi Calm Calm - N/A   Overcast
11:25 AM 10.4 °F 0.8 °F 5.0 °F 79% 30.18 in 10.0 mi SE 5.8 mph - N/A   Overcast
11:53 AM 12.0 °F -0.4 °F 7.0 °F 80% 30.21 in 10.0 mi SE 9.2 mph - N/A   Overcast
12:53 PM 15.1 °F 2.5 °F 10.0 °F 80% 30.18 in 9.0 mi SE 10.4 mph - N/A   Overcast
1:53 PM 18.0 °F 4.2 °F 12.0 °F 78% 30.14 in 10.0 mi SE 13.8 mph - N/A   Overcast
2:53 PM 19.9 °F 7.9 °F 14.0 °F 78% 30.10 in 10.0 mi SE 11.5 mph - N/A   Overcast
3:53 PM 21.0 °F 8.1 °F 15.1 °F 78% 30.06 in 9.0 mi SE 13.8 mph - N/A   Overcast
4:53 PM 21.0 °F 8.1 °F 16.0 °F 81% 30.04 in 8.0 mi SE 13.8 mph - N/A   Overcast
5:53 PM 21.9 °F 9.2 °F 17.1 °F 82% 30.03 in 9.0 mi SE 13.8 mph - N/A   Overcast
6:31 PM 21.2 °F 7.8 °F 17.6 °F 86% 29.96 in 8.0 mi SE 15.0 mph - N/A   Overcast
6:53 PM 21.9 °F 8.2 °F 18.0 °F 85% 30.00 in 8.0 mi SE 16.1 mph 21.9 mph N/A   Overcast
7:53 PM 23.0 °F 9.2 °F 19.0 °F 85% 29.97 in 7.0 mi SE 17.3 mph - N/A   Overcast
8:22 PM 21.2 °F 6.4 °F 19.4 °F 93% 29.91 in 6.0 mi SE 18.4 mph 25.3 mph N/A   Overcast
8:53 PM 21.9 °F 8.2 °F 19.0 °F 89% 29.94 in 5.0 mi SE 16.1 mph 24.2 mph N/A   Overcast
9:53 PM 23.0 °F 8.7 °F 19.0 °F 85% 29.91 in 6.0 mi SE 18.4 mph 27.6 mph N/A   Overcast
10:53 PM 23.0 °F 7.6 °F 19.9 °F 88% 29.87 in 7.0 mi SE 21.9 mph 29.9 mph N/A   Overcast
11:08 PM 23.0 °F 8.7 °F 19.4 °F 86% 29.83 in 7.0 mi SSE 18.4 mph 27.6 mph N/A   Overcast
11:53 PM 24.1 °F 9.8 °F 19.0 °F 81% 29.84 in 9.0 mi SE 19.6 mph 26.5 mph N/A   Overcast